FENGYUN 1C DEB, 29770

Orbit data source: Space-Track

FENGYUN 1C DEB, 29770 is space debris in SSO originally from a launch on Mon, 10 May 1999 UTC launched from the Taiyaun Space Center, China (TSC). Fengyun 1C debris stems from the Chinese weather satellite Fengyun-1C, which was intentionally destroyed by a Chinese anti-satellite missile in 2007. This event dramatically increased the amount of space debris, with thousands of trackable fragments posing hazards to satellites and human spaceflight. The Fengyun 1C debris cloud has become a focal point in discussions about space sustainability and the need for international regulations to prevent the creation of new debris.

Loading next visibility...
Identifier
29770, 1999-025BL
Orbit
SSO
Country
Flag of CNCN / PRC
Related business
Manufacturer
Unknown
Mission
Spacecraft
Bus & Motor
Unknown
Mass
Unknown
Launch date (UTC)
1999-05-10 (27 years ago)
Launch vehicle
Unknown
Launch site
Taiyaun Space Center, China (TSC)
Object type
Payload
Rocket body
Debris
Shape & HBR
Unknown shape, 0.1 m
Radar Cross Section
Small (<0.1 m²)

Expand to show TLE details & history
Last TLE update: 6 hours ago

TLE from 6 hours ago
0 FENGYUN 1C DEB
1 29770U 99025BL  26123.72565683  .00002785  00000-0  12794-2 0  9993
2 29770  98.8340 204.2943 0062453 223.3143 289.1734 14.21014831991021
Epoch: 2026-05-03T17:24Z
TLE epoch observation values (Epoch: 2026-05-03T17:24:56.750Z)
Latitude
27.8692°
Longitude
-93.87834°
Altitude
810.818 km
Speed
7.458 km/s
True Right ascension
01h 55m 55s
True Declination
27° 43' 42"
Sunlit
Object was in daylight at epoch
Visualization orbit readout
Latitude
Unknown
Longitude
Unknown
Altitude
Unknown
Speed
Unknown
Apparent Right ascension
Unknown
Apparent Declination
Unknown
Sunlit
N/A
Visualization observer readout
Local Sidereal Time
07:38:54
Azimuth
Unknown
Elevation
Unknown
Doppler factor
Unknown
Orbital elements
Apogee altitude
864.035 km
Perigee altitude
774.137 km
Semi-major axis
7,197.223 km
Eccentricity
0.00625
Inclination
98.834°
RAAN
204.2943°
Arg. of periapsis
223.3143°
True anomaly
288.49572°
Mean anomaly
289.1734°
Eccentric anomaly
288.83473°
Mean motion
3.55464 °/min
Orbital period
101.28 mins
BSTAR
0.0012794
Loading maneuver chart data...
Computing Atmospheric mass density...
Loading historical data...
Loading historical data...
Loading historical data...
Loading historical data...
Loading historical data...
Loading historical data...
Loading historical data...

Documentation

Showing up to 5 results
|